Date,TemperatureHighF,TemperatureAvgF,TemperatureLowF,DewpointHighF,DewpointAvgF,DewpointLowF,HumidityHigh,HumidityAvg,HumidityLow,PressureMaxIn,PressureMinIn,WindSpeedMaxMPH,WindSpeedAvgMPH,GustSpeedMaxMPH,PrecipitationSumIn
2013-5-1,77,71,67,72,69,66,99,95,77,29.91,29.83,5,1,0,0.18
2013-5-2,73,69,65,72,68,65,99,98,90,29.85,29.71,4,1,0,5.68
2013-5-3,80,71,66,70,68,65,99,91,69,29.73,29.59,10,3,0,2.87
2013-5-4,86,74,68,71,68,66,99,82,53,29.70,29.56,7,2,0,0.00
2013-5-5,79,69,60,68,53,44,98,61,32,29.84,29.66,10,4,0,0.01
2013-5-6,79,68,60,60,55,50,92,65,39,29.91,29.80,7,3,0,0.00
2013-5-7,82,67,52,60,55,51,99,69,40,29.96,29.87,16,2,0,0.00
2013-5-8,83,70,57,63,59,56,99,72,41,30.04,29.93,7,2,0,0.00
2013-5-9,88,73,56,66,60,55,99,69,35,30.06,29.98,6,1,0,0.00
2013-5-10,92,77,63,71,66,62,99,74,40,30.05,29.90,9,2,0,0.00
2013-5-11,91,77,67,72,68,64,99,77,47,29.96,29.88,12,3,0,0.00
2013-5-12,90,78,66,72,66,63,99,71,45,29.95,29.85,7,2,0,0.00
2013-5-13,85,74,61,68,59,46,95,63,33,30.05,29.91,7,2,0,0.00
2013-5-14,84,69,52,57,51,45,98,60,27,30.12,30.03,6,2,0,0.00
2013-5-15,87,71,55,62,56,51,99,64,33,30.13,30.00,6,2,0,0.08
2013-5-16,88,75,63,64,62,58,94,66,40,30.04,29.92,7,2,0,0.00
2013-5-17,89,76,62,68,63,59,99,68,39,30.01,29.94,7,2,0,0.00
2013-5-18,94,78,65,72,68,62,99,73,37,30.03,29.91,7,2,0,0.00
2013-5-19,92,78,63,72,70,35,94,79,35,30.00,29.90,8,2,0,0.00
2013-5-20,91,76,68,74,70,65,99,83,47,30.00,29.89,15,2,0,1.34
2013-5-21,85,73,68,73,70,67,99,92,62,29.95,29.86,7,2,0,0.70
2013-5-22,86,75,67,73,70,67,99,85,59,29.88,29.82,7,1,0,0.00
2013-5-23,92,77,68,74,70,67,99,84,48,29.91,29.82,11,2,0,0.59
2013-5-24,93,80,68,74,67,60,99,71,34,30.00,29.88,8,2,0,0.00
2013-5-25,87,76,66,69,64,58,99,68,45,30.11,29.98,9,2,0,0.00
2013-5-26,86,72,57,62,59,54,99,67,34,30.13,30.04,7,2,0,0.00
2013-5-27,88,74,62,66,62,60,99,70,42,30.10,30.01,7,2,0,0.00
2013-5-28,84,71,67,71,66,64,97,87,61,30.06,29.97,5,1,0,0.00
2013-5-29,86,77,71,74,72,69,97,84,59,30.05,29.97,10,3,0,0.07
2013-5-30,85,77,70,74,71,66,99,83,58,30.04,29.95,10,3,0,0.32
2013-5-31,85,77,70,75,71,68,98,82,62,30.02,29.94,7,3,0,0.11